sat.trackr.live / text

‹ back to catalog

EUTELSAT QUANTUM

NORAD 49056 · 2021-069B

PAYLOAD ACTIVE UNKNOWN

§ Identity

Operator
Country
EUTE
Launch date
2021-07-30
Launch site
FRGUI
Launch vehicle
Mass (kg)
RCS (m²)

Purposes: comms

External: N2YO · Heavens-Above · Gunter

§ Orbital elements

Epoch: 2026-09-19T18:54:32.667840Z

Period
1,436.09 min
Inclination
0.0195°
Eccentricity
0.0002304
Mean motion
1.00272254 rev/d
Perigee alt
35,776.7 km
Apogee alt
35,796.2 km
Semi-major
42,164.6 km
B*
0.0000e+0
RAAN
68.9062°
Arg perigee
102.8425°
Mean anomaly
158.2863°
Rev number
1,887

§ Raw data

EUTELSAT QUANTUM1 49056U 21069B   26262.78787810  .00000122  00000+0  00000+0 0  99992 49056   0.0195  68.9062 0002304 102.8425 158.2863  1.00272254 18873

JSON: /api/v1/satellites/49056 · /tle

For live sub-satellite position, see the globe view (requires WebGL).

§ Visibility from observer

Set your observer location to see the next 7 days of passes ≥ 10°. The values pass through the URL so the page stays shareable.

No JS? Fill the form by hand. The geolocation button needs JavaScript.